Location: Anjeux
(47.8815°N, 6.2076°E)
Time: 11:30:54
(UTC+00:00)

AO-27 - Pass Details

Date: 18 December 2021
Orbit: 784 x 798 km, 98.9° (Epoch: 24 January)

Event Time Altitude Azimuth Distance (km) Brightness Sun altitude
Rises 06:19:21 0° 23° (NNE) 3,307 10.9 -9.7°
Reaches altitude 10° 06:21:58 10° 34° (NNE) 2,370 10.3 -9.3°
Maximum altitude 06:26:34 31° 95° (E) 1,375 9.8 -8.6°
Drops below altitude 10° 06:31:07 10° 157° (SSE) 2,346 10.9 -7.9°
Sets 06:33:41 0° 168° (SSE) 3,268 11.5 -7.5°
